Wind_Speed
8 5 2 1 1 0 1 2 3 3 4 4 4 4 3 3 4 5 7 9 10 11 13 14 15 17 17 18 18 17 17 16 16 16 15 15 14 14 13 13 12 12
11 8 6 3 2 2 2 2 3 3 3 4 4 4 3 2 2 3 4 6 7 9 10 12 13 14 15 16 16 16 16 15 15 14 14 14 13 13 12 11 11 11
14 12 9 7 6 5 5 4 4 5 5 4 4 4 4 3 1 1 2 3 5 6 8 9 10 11 13 14 14 15 15 14 14 13 12 12 12 11 11 10 10 9
16 15 13 11 10 8 7 7 6 7 7 6 5 5 4 3 3 1 0 2 3 4 6 7 8 9 10 11 12 13 13 13 13 12 12 11 11 10 10 9 9 8
19 18 17 15 14 12 11 10 9 9 9 8 8 7 5 5 4 3 2 1 2 3 4 5 6 8 9 10 10 11 12 12 12 12 11 10 10 9 9 8 8 7
22 21 20 19 17 16 15 14 13 12 12 10 10 9 7 6 6 5 4 3 2 2 3 4 5 6 7 8 9 10 10 11 11 11 11 10 10 9 8 8 7 6
25 24 23 22 21 20 18 17 16 15 14 13 12 11 10 9 7 6 6 5 4 3 3 4 4 5 6 7 7 8 9 9 10 10 10 10 10 9 8 7 6 6
28 27 26 25 24 23 21 20 19 18 17 15 14 13 12 11 9 8 8 6 6 6 5 5 5 5 5 6 7 7 8 9 9 10 10 10 9 8 8 7 6 5
28 29 29 28 26 25 23 22 21 20 19 17 16 15 13 12 11 11 10 9 8 8 7 7 7 7 7 7 7 8 9 9 10 10 10 10 9 8 7 6 6 5
27 28 28 28 27 26 25 24 23 22 21 19 18 17 15 14 13 12 12 11 10 10 10 10 9 9 9 8 8 9 10 10 11 11 11 10 10 9 7 6 5 5
25 25 26 27 26 26 25 25 24 23 22 21 20 19 18 16 15 14 13 13 13 13 13 12 12 11 11 10 10 10 11 11 12 12 11 11 10 10 9 7 6 5
26 26 25 24 24 25 25 25 25 25 24 23 22 21 20 19 17 17 16 15 15 15 15 14 14 13 13 12 12 12 12 12 13 13 12 12 11 11 10 9 8 7
28 27 25 23 23 23 24 25 25 25 24 24 24 23 22 21 20 19 18 18 18 18 17 16 16 15 14 14 14 14 14 14 14 14 13 13 12 11 11 11 10 9
29 28 26 24 23 23 24 25 25 25 25 25 26 25 24 23 22 21 21 21 20 20 19 18 17 16 16 15 15 15 15 15 15 15 14 14 13 12 12 12 12 11
32 31 29 26 24 24 25 26 25 25 25 25 27 27 26 25 24 24 23 23 23 22 21 20 19 18 17 16 16 16 16 15 15 15 15 14 14 14 13 13 14 13
35 32 31 29 27 26 25 26 26 26 25 26 27 27 27 27 26 26 26 25 25 24 23 21 20 18 18 17 17 17 16 15 15 15 15 15 14 14 14 15 15 15
37 34 33 31 30 28 26 26 27 27 27 27 27 28 28 28 27 27 27 26 26 25 24 22 20 18 17 18 17 16 16 15 15 15 15 15 15 15 15 16 16 15
36 37 35 33 32 30 28 26 26 27 28 29 29 29 29 28 28 28 27 26 26 25 24 22 19 18 17 18 17 16 15 15 15 15 15 15 15 15 15 15 15 15
33 37 38 36 33 31 29 27 26 26 28 29 29 29 28 28 28 28 26 25 24 24 23 21 19 18 17 17 16 15 15 15 15 15 15 15 14 14 14 14 14 14
35 37 39 40 36 32 30 29 26 24 24 25 26 26 26 27 26 25 23 22 22 22 21 20 19 18 17 16 16 15 15 15 16 15 15 14 13 12 13 13 13 13
38 37 39 40 38 35 33 30 26 23 20 19 20 20 21 22 21 20 20 21 21 21 20 20 19 17 16 16 17 16 15 15 15 15 13 12 11 11 11 11 12 12
41 40 41 39 38 37 35 30 25 20 15 13 13 14 15 15 15 16 17 18 18 18 19 19 18 16 15 16 17 16 16 15 14 12 11 10 10 11 11 11 11 11
44 42 43 41 39 39 36 33 29 26 22 20 19 18 15 14 15 15 15 16 16 16 17 17 15 14 14 16 17 17 16 14 12 10 10 10 10 10 11 12 12 11
43 40 41 44 44 42 39 38 38 37 36 35 34 34 31 27 24 20 18 18 18 16 16 14 14 14 14 15 17 17 15 13 11 10 10 10 10 10 12 13 13 13
45 40 40 44 49 47 43 42 42 40 39 37 37 38 38 36 33 30 28 26 23 20 19 17 16 15 15 15 16 17 16 14 12 11 11 10 10 11 13 14 15 14
54 49 46 48 51 51 47 45 43 40 38 37 36 36 36 34 33 32 31 29 26 26 26 25 21 18 19 20 19 19 18 16 14 13 11 11 11 13 14 15 15 14
Wind_Direction
245 244 247 311 29 102 198 178 159 153 147 144 147 148 137 115 100 89 83 79 78 76 74 73 73 72 71 70 69 68 68 70 73 77 79 80 80 80 81 82 83 84
247 252 258 265 265 264 265 237 208 198 189 172 165 169 169 158 116 91 81 76 75 72 70 69 68 67 67 67 66 66 65 64 65 68 72 76 77 78 79 80 80 80
250 254 257 257 257 267 282 275 244 229 223 212 199 192 190 197 192 111 73 64 63 64 64 62 61 60 60 60 60 61 60 60 59 60 62 67 70 72 74 75 77 77
250 254 257 259 263 271 281 282 265 245 236 232 229 221 214 220 229 237 335 34 40 46 51 52 50 49 49 51 52 52 52 52 53 53 54 56 60 62 65 67 70 71
247 253 259 263 267 273 278 279 271 256 247 240 237 236 231 234 242 252 269 313 1 19 30 37 38 37 37 39 41 42 43 43 42 42 43 46 49 52 54 56 59 60
246 252 258 263 267 271 274 276 272 265 257 246 242 242 240 240 246 253 264 276 300 334 355 11 21 24 24 26 28 30 31 33 34 33 32 34 37 41 43 45 45 47
244 249 255 260 264 267 269 271 272 269 263 253 247 245 243 244 247 252 261 269 280 295 313 331 349 0 6 9 12 15 17 19 21 22 23 23 26 29 31 32 31 32
239 243 248 253 258 262 265 267 269 270 266 257 250 247 247 248 249 251 256 264 273 281 290 300 314 328 338 345 351 355 358 1 3 6 9 11 13 17 20 22 20 18
237 239 241 245 249 253 257 261 264 267 267 260 253 249 249 251 252 253 256 260 267 273 280 288 295 305 314 322 331 336 339 343 346 350 353 356 358 0 5 9 8 7
237 237 237 239 242 244 247 251 256 261 263 260 255 251 251 252 253 255 256 259 263 268 274 281 287 294 299 306 315 320 324 329 332 336 340 342 342 342 344 347 347 349
238 236 235 234 234 236 239 243 247 251 255 255 253 251 251 251 253 254 255 257 260 263 269 275 280 285 291 298 304 309 314 318 322 325 328 330 330 328 325 324 324 326
240 239 237 233 230 229 230 234 238 242 245 248 248 248 249 250 252 253 254 255 257 260 264 268 274 279 285 292 297 301 306 310 313 315 317 320 320 317 314 311 309 309
244 244 243 238 230 226 225 226 229 233 237 239 240 241 243 246 250 252 253 255 257 260 263 267 272 277 282 287 292 296 301 304 306 307 310 310 308 306 305 302 300 298
246 247 248 243 234 226 223 223 223 226 230 233 235 236 237 240 244 248 251 254 257 260 263 266 269 273 278 282 286 290 294 297 299 301 302 302 301 299 298 295 293 292
242 246 249 247 240 231 225 223 222 223 227 231 233 234 235 236 238 242 245 249 254 257 259 262 265 269 272 276 280 284 287 289 292 294 295 294 294 294 294 292 291 291
241 244 247 247 243 237 231 226 222 220 222 228 232 234 235 236 237 239 241 245 249 253 256 259 262 265 269 272 275 278 281 282 285 286 286 286 286 288 288 287 288 290
244 243 244 247 246 242 237 231 226 222 220 223 227 231 234 235 237 239 241 244 248 252 255 257 259 261 264 268 271 272 274 276 278 279 278 278 279 279 279 280 282 284
247 247 245 246 248 248 245 240 233 227 223 222 223 226 229 232 235 238 240 243 246 250 253 256 257 258 260 263 265 266 267 269 270 271 272 273 273 274 276 277 278 279
240 248 248 246 247 250 252 249 242 235 230 227 225 225 227 230 233 235 237 240 243 247 251 253 254 254 255 257 259 258 259 260 263 266 267 269 271 272 274 276 277 278
227 239 247 247 246 246 249 250 250 246 241 237 234 231 230 232 234 235 236 237 240 243 246 249 250 250 249 250 252 252 253 254 257 261 264 267 270 272 273 275 277 278
220 227 237 243 244 244 246 248 251 254 254 251 246 243 242 241 240 238 237 237 238 240 242 244 246 246 244 245 247 249 251 252 255 258 264 269 271 272 274 275 276 279
217 221 226 231 235 239 242 245 247 252 258 259 255 254 257 258 256 251 247 244 242 241 242 243 244 244 242 242 245 247 249 251 254 259 263 265 266 268 270 271 274 277
219 222 223 224 226 229 231 233 233 232 230 230 230 230 237 248 254 258 261 261 257 251 247 246 245 244 242 239 240 243 245 248 251 254 256 255 256 259 263 265 269 270
219 224 225 224 224 223 224 225 225 223 220 219 218 217 217 217 219 223 232 242 248 251 253 253 249 243 240 238 239 242 243 244 245 245 246 247 249 254 257 261 263 265
217 224 228 226 222 220 221 224 225 225 223 220 220 219 216 212 208 208 213 218 221 224 231 238 243 246 247 243 240 241 243 243 242 240 240 242 245 249 253 257 261 264
217 221 225 224 220 218 219 222 225 226 225 224 225 226 223 218 212 211 214 217 217 216 217 218 220 229 242 246 241 238 240 242 242 241 240 240 243 246 251 257 263 267
Height
11024 11025 11025 11026 11027 11027 11027 11028 11028 11028 11028 11028 11028 11028 11029 11029 11029 11028 11028 11027 11026 11026 11025 11024 11023 11022 11021 11021 11020 11020 11019 11019 11018 11017 11017 11017 11016 11016 11016 11015 11015 11014
11024 11024 11025 11026 11026 11027 11028 11028 11028 11029 11029 11029 11029 11029 11029 11029 11029 11029 11029 11028 11028 11027 11026 11026 11025 11024 11023 11023 11022 11022 11021 11021 11020 11019 11019 11018 11018 11018 11017 11017 11016 11016
11024 11024 11025 11025 11026 11027 11028 11028 11028 11029 11029 11029 11029 11029 11029 11030 11030 11030 11030 11029 11029 11028 11028 11027 11027 11026 11025 11024 11024 11023 11023 11023 11022 11021 11021 11020 11019 11019 11019 11018 11018 11017
11023 11024 11024 11025 11025 11026 11027 11028 11028 11029 11029 11030 11030 11030 11030 11030 11030 11030 11030 11030 11030 11029 11029 11028 11028 11027 11027 11026 11025 11025 11024 11024 11024 11023 11023 11022 11021 11021 11020 11019 11019 11018
11022 11023 11023 11024 11025 11026 11027 11028 11028 11029 11029 11030 11030 11030 11030 11030 11030 11031 11031 11030 11030 11030 11029 11029 11029 11029 11028 11028 11027 11026 11026 11025 11025 11025 11024 11024 11023 11022 11021 11021 11020 11020
11021 11022 11022 11023 11024 11025 11026 11027 11027 11028 11029 11029 11030 11030 11030 11030 11030 11031 11031 11031 11031 11030 11030 11030 11029 11029 11029 11029 11028 11028 11027 11027 11026 11026 11026 11025 11024 11023 11023 11022 11022 11021
11019 11021 11021 11022 11023 11024 11025 11026 11026 11027 11028 11029 11029 11030 11030 11030 11030 11031 11031 11031 11031 11031 11030 11030 11030 11030 11030 11030 11029 11029 11028 11028 11027 11027 11026 11026 11025 11025 11024 11023 11023 11022
11017 11018 11019 11020 11021 11023 11024 11025 11025 11026 11027 11028 11029 11029 11030 11030 11030 11030 11030 11031 11031 11031 11031 11030 11030 11030 11030 11030 11030 11030 11029 11029 11028 11028 11027 11027 11026 11025 11025 11024 11023 11023
11014 11015 11017 11018 11019 11021 11022 11023 11024 11025 11026 11027 11028 11028 11029 11030 11030 11030 11030 11030 11030 11030 11030 11030 11030 11030 11030 11030 11030 11030 11030 11029 11028 11028 11028 11027 11027 11026 11025 11025 11024 11023
11011 11012 11013 11015 11016 11018 11019 11021 11022 11023 11025 11026 11026 11027 11028 11029 11029 11030 11030 11030 11030 11030 11030 11030 11030 11030 11030 11030 11030 11030 11030 11029 11029 11028 11028 11027 11027 11026 11026 11025 11024 11023
11010 11011 11011 11012 11013 11015 11017 11018 11020 11021 11023 11024 11025 11025 11026 11027 11028 11029 11029 11029 11029 11029 11029 11029 11029 11029 11030 11030 11030 11029 11029 11029 11028 11028 11028 11027 11027 11026 11026 11025 11024 11024
11009 11009 11010 11010 11011 11012 11014 11015 11016 11018 11020 11021 11023 11024 11025 11025 11026 11027 11028 11028 11028 11028 11028 11028 11028 11028 11029 11029 11029 11029 11028 11028 11028 11027 11027 11026 11026 11026 11025 11025 11024 11024
11008 11009 11010 11010 11010 11011 11011 11012 11013 11015 11017 11019 11020 11021 11022 11023 11024 11025 11026 11026 11027 11027 11027 11027 11027 11028 11028 11028 11028 11028 11027 11027 11027 11026 11026 11026 11025 11025 11025 11024 11024 11023
11007 11009 11010 11010 11009 11009 11009 11010 11011 11012 11014 11016 11017 11018 11020 11021 11022 11023 11024 11024 11025 11025 11026 11026 11026 11026 11027 11027 11027 11026 11026 11026 11026 11025 11025 11024 11024 11024 11024 11023 11023 11023
11007 11008 11009 11009 11008 11008 11007 11008 11009 11010 11012 11013 11014 11016 11017 11018 11019 11020 11021 11021 11022 11023 11023 11024 11024 11025 11025 11025 11025 11025 11025 11025 11024 11024 11023 11023 11023 11022 11022 11022 11022 11022
11005 11006 11007 11007 11007 11007 11006 11006 11007 11008 11009 11011 11012 11013 11014 11015 11016 11017 11018 11018 11019 11020 11021 11021 11022 11023 11023 11023 11023 11023 11023 11023 11023 11022 11022 11021 11021 11021 11021 11021 11021 11021
11002 11003 11005 11006 11006 11006 11005 11005 11005 11005 11006 11007 11009 11010 11011 11012 11013 11014 11015 11016 11016 11017 11017 11018 11019 11021 11021 11021 11021 11022 11022 11021 11021 11021 11020 11020 11020 11020 11020 11020 11020 11020
11000 11002 11003 11005 11006 11006 11005 11005 11004 11004 11004 11004 11005 11007 11008 11009 11010 11011 11012 11013 11013 11014 11014 11015 11017 11018 11018 11019 11019 11020 11020 11020 11019 11019 11019 11018 11018 11019 11019 11019 11019 11019
10997 11000 11001 11003 11005 11006 11006 11005 11004 11003 11002 11002 11003 11004 11005 11006 11007 11008 11009 11010 11011 11011 11012 11013 11014 11014 11015 11016 11016 11017 11017 11018 11017 11017 11017 11017 11017 11017 11017 11017 11018 11018
10988 10994 10998 11001 11004 11005 11005 11005 11004 11003 11002 11002 11002 11003 11004 11004 11004 11006 11007 11008 11009 11009 11010 11010 11011 11012 11012 11013 11014 11015 11015 11015 11015 11015 11015 11015 11015 11016 11016 11016 11017 11017
10978 10986 10992 10998 11002 11004 11005 11005 11005 11004 11003 11003 11003 11003 11003 11003 11004 11005 11006 11006 11007 11007 11008 11008 11009 11009 11010 11011 11011 11012 11013 11013 11013 11013 11013 11014 11014 11015 11015 11016 11016 11016
10970 10976 10983 10991 10998 11002 11004 11005 11005 11005 11004 11004 11004 11004 11003 11003 11004 11005 11005 11006 11006 11006 11007 11007 11007 11007 11008 11008 11009 11009 11010 11010 11011 11011 11012 11012 11013 11013 11014 11014 11015 11015
10966 10969 10975 10984 10992 10996 10998 10999 10999 10998 10997 10997 10998 10999 10999 11001 11004 11006 11006 11006 11006 11006 11005 11005 11006 11006 11006 11006 11006 11006 11007 11007 11008 11009 11009 11010 11011 11011 11012 11012 11013 11013
10963 10966 10971 10977 10985 10990 10992 10991 10989 10987 10984 10984 10984 10983 10984 10988 10993 10996 10998 11000 11003 11005 11005 11005 11005 11005 11003 11003 11003 11003 11003 11004 11005 11005 11006 11007 11008 11009 11010 11010 11010 11011
10958 10962 10967 10972 10977 10982 10983 10982 10982 10982 10981 10981 10980 10978 10977 10979 10982 10984 10986 10989 10992 10996 10999 11002 11003 11003 11002 11001 11000 11000 11000 11000 11001 11002 11003 11004 11005 11006 11006 11007 11008 11008
10951 10954 10958 10964 10969 10972 10973 10972 10975 10979 10981 10981 10980 10979 10978 10980 10982 10982 10984 10985 10987 10987 10988 10990 10992 10995 10998 10999 10998 10996 10996 10996 10997 10998 10999 11001 11002 11002 11003 11004 11005 11006